Weather History for Guthrie, OK

Change the Weather History Date:

Saturday, October 29, 2011

  Actual Average Record
Temperature  
Mean Temperature 54 °F -  
Max Temperature 66 °F 71 °F 87 °F (1950)
Min Temperature 42 °F 46 °F 22 °F (1952)
Degree Days  
Heating Degree Days 11    
Growing Degree Days 4 (Base 50)    
Moisture  
Dew Point 34 °F    
Average Humidity 53    
Maximum Humidity 76    
Minimum Humidity 25    
Precipitation  
Precipitation 0.01 in - - ()
Sea Level Pressure  
Sea Level Pressure 30.15 in    
Wind  
Wind Speed 9 mph (SSW)    
Max Wind Speed 20 mph    
Max Gust Speed 26 mph    
Visibility 10 miles    
Events      
Averages and records for this station are not official NWS values.
T = Trace of Precipitation, MM = Missing Value Source: NWS Daily Summary

Daily Weather History Graph

Daily Weather History Graph

Search for Another Location

Airport:

Trip Planner

Search our weather history database for the weather conditions in past years. The results will help you decide how hot, cold, wet, or windy it might be!

Date:

Astronomy

Oct. 29, 2011 Rise Set
Actual Time 7:48 AM CDT 6:37 PM CDT
Civil Twilight 7:22 AM CDT 7:03 PM CDT
Nautical Twilight 6:52 AM CDT 7:33 PM CDT
Astronomical Twilight 6:22 AM CDT 8:03 PM CDT
Moon 11:05 AM CDT (10/29) 9:08 PM CDT (10/29)
Length of Visible Light 11h 41m
Length of Day
10h 48m
Waxing Crescent, 12% of the Moon is Illuminated
Oct 29
Waxing Crescent
Nov 2
First Quarter
Nov 10
Full
Nov 18
Last Quarter
Nov 25
New

Hourly Weather History & Observations

Time (CDT) Temp. Windchill Dew Point Humidity Pressure Visibility Wind Dir Wind Speed Gust Speed Precip Events Conditions
12:53 AM 42.1 °F 38.4 °F 35.1 °F 76% 30.25 in 10.0 mi South 5.8 mph - N/A   Clear
1:53 AM 43.0 °F 40.3 °F 35.1 °F 74% 30.25 in 10.0 mi SSW 4.6 mph - N/A   Clear
2:53 AM 42.1 °F 39.2 °F 35.1 °F 76% 30.24 in 10.0 mi South 4.6 mph - N/A   Clear
3:53 AM 42.1 °F 39.2 °F 35.1 °F 76% 30.22 in 10.0 mi South 4.6 mph - N/A   Clear
5:53 AM 43.0 °F 39.5 °F 35.1 °F 74% 30.22 in 10.0 mi SSW 5.8 mph - N/A   Clear
6:53 AM 44.1 °F 39.5 °F 35.1 °F 71% 30.22 in 10.0 mi SSW 8.1 mph - N/A   Clear
7:53 AM 44.1 °F 39.5 °F 35.1 °F 71% 30.23 in 10.0 mi SSW 8.1 mph - N/A   Clear
8:53 AM 46.9 °F - 35.1 °F 63% 30.24 in 10.0 mi SSW 8.1 mph - N/A   Clear
9:53 AM 52.0 °F - 36.0 °F 54% 30.24 in 10.0 mi SW 9.2 mph - N/A   Clear
10:53 AM 57.0 °F - 37.9 °F 49% 30.23 in 10.0 mi SW 10.4 mph - N/A   Clear
11:53 AM 61.0 °F - 34.0 °F 36% 30.22 in 10.0 mi SSW 15.0 mph 21.9 mph N/A   Clear
12:53 PM 63.0 °F - 32.0 °F 31% 30.18 in 10.0 mi SW 16.1 mph 21.9 mph 0.01 in   Clear
1:53 PM 64.0 °F - 30.9 °F 29% 30.14 in 10.0 mi South 17.3 mph 24.2 mph N/A   Clear
2:53 PM 64.9 °F - 30.0 °F 27% 30.09 in 10.0 mi SSW 16.1 mph 26.5 mph N/A   Clear
3:53 PM 66.0 °F - 28.9 °F 25% 30.07 in 10.0 mi SSW 15.0 mph 23.0 mph N/A   Clear
4:53 PM 64.0 °F - 28.9 °F 27% 30.04 in 10.0 mi South 19.6 mph 24.2 mph N/A   Clear
7:53 PM 54.0 °F - 35.1 °F 49% 30.03 in 10.0 mi South 8.1 mph - N/A   Clear
8:53 PM 50.0 °F - 35.1 °F 57% 30.05 in 10.0 mi South 5.8 mph - N/A   Clear
9:53 PM 52.0 °F - 34.0 °F 50% 30.04 in 10.0 mi SSE 9.2 mph - N/A   Clear
10:53 PM 52.0 °F - 35.1 °F 53% 30.03 in 10.0 mi South 11.5 mph - N/A   Clear
11:53 PM 52.0 °F - 34.0 °F 50% 30.02 in 10.0 mi South 12.7 mph - N/A   Clear